Location: Newark
(15.4608°S, 41.1635°W)
Time: 00:48:44
(UTC+00:00)

N. Korean satellite - Pass Details

Date: 29 June 2021
Orbit: 451 x 498 km, 97.2° (Epoch: 30 July)

Event Time Altitude Azimuth Distance (km) Brightness Sun altitude
Rises 08:27:05 0° 333° (NNW) 2,569 10.2 -10.8°
Reaches altitude 10° 08:30:20 10° 301° (WNW) 1,692 9.0 -10.0°
Maximum altitude 08:31:44 12° 278° (W) 1,577 8.6 -9.7°
Enters shadow 08:32:21 12° 267° (W) 1,600 8.6 -9.6°
